TimeCDT,TemperatureF,Dew PointF,Humidity,Sea Level PressureIn,VisibilityMPH,Wind Direction,Wind SpeedMPH,Gust SpeedMPH,PrecipitationIn,Events,Conditions,WindDirDegrees,DateUTC
12:52 AM,44.1,21.9,42,30.29,10.0,East,4.6,-,N/A,,Clear,90,2013-05-04 05:52:00
1:52 AM,42.1,19.9,41,30.30,10.0,East,4.6,-,N/A,,Clear,90,2013-05-04 06:52:00
2:52 AM,39.9,19.9,45,30.31,10.0,Calm,Calm,-,N/A,,Clear,0,2013-05-04 07:52:00
3:52 AM,37.9,19.9,48,30.32,10.0,East,3.5,-,N/A,,Clear,80,2013-05-04 08:52:00
4:52 AM,33.1,21.0,61,30.33,10.0,Calm,Calm,-,N/A,,Clear,0,2013-05-04 09:52:00
5:52 AM,30.0,21.9,72,30.33,10.0,Calm,Calm,-,N/A,,Clear,0,2013-05-04 10:52:00
6:52 AM,28.0,21.9,78,30.35,8.0,NNE,3.5,-,N/A,,Clear,20,2013-05-04 11:52:00
7:52 AM,37.9,24.1,57,30.35,8.0,ENE,4.6,-,N/A,,Clear,60,2013-05-04 12:52:00
8:52 AM,42.1,24.1,49,30.36,10.0,Calm,Calm,-,N/A,,Clear,0,2013-05-04 13:52:00
9:52 AM,46.9,24.1,41,30.36,10.0,Variable,3.5,-,N/A,,Clear,0,2013-05-04 14:52:00
10:52 AM,52.0,25.0,35,30.36,10.0,WNW,3.5,-,N/A,,Clear,290,2013-05-04 15:52:00
11:52 AM,55.0,21.9,28,30.35,10.0,Variable,4.6,-,N/A,,Clear,0,2013-05-04 16:52:00
12:52 PM,57.0,21.9,26,30.35,10.0,Calm,Calm,-,N/A,,Clear,0,2013-05-04 17:52:00
1:52 PM,60.1,24.1,25,30.33,10.0,Calm,Calm,-,N/A,,Clear,0,2013-05-04 18:52:00
2:52 PM,62.1,25.0,24,30.31,10.0,East,13.8,18.4,N/A,,Clear,80,2013-05-04 19:52:00
3:52 PM,63.0,25.0,24,30.30,10.0,East,6.9,-,N/A,,Clear,100,2013-05-04 20:52:00
4:52 PM,63.0,24.1,23,30.30,10.0,East,8.1,-,N/A,,Clear,100,2013-05-04 21:52:00
5:52 PM,62.1,24.1,23,30.30,10.0,East,5.8,17.3,N/A,,Clear,80,2013-05-04 22:52:00
6:52 PM,62.1,24.1,23,30.30,10.0,East,11.5,17.3,N/A,,Clear,80,2013-05-04 23:52:00
7:52 PM,60.1,25.0,26,30.29,10.0,ESE,8.1,-,N/A,,Clear,110,2013-05-05 00:52:00
8:52 PM,55.0,28.0,35,30.29,10.0,East,8.1,-,N/A,,Clear,100,2013-05-05 01:52:00
9:52 PM,48.0,27.0,44,30.31,10.0,Calm,Calm,-,N/A,,Clear,0,2013-05-05 02:52:00
10:52 PM,37.9,28.0,68,30.33,10.0,North,3.5,-,N/A,,Clear,10,2013-05-05 03:52:00
11:52 PM,37.9,28.0,68,30.32,10.0,Calm,Calm,-,N/A,,Clear,0,2013-05-05 04:52:00